This is the latest recevied weather packets stored in our database for station/object KI5NXU. If no packets are shown the sender has not sent any weather packets the latest 10 day(s).
| Time | Temp. | Humidity | Pressure | Rain* | Wind** | Luminosity | Snow |
|---|---|---|---|---|---|---|---|
| 1788056174 | 33.89° C | 39% | 1014 hPa | 0 mm | - | 0 W/m² | - |
| 1788055870 | 33.89° C | 39% | 1014.1 hPa | 0 mm | - | 0 W/m² | - |
| 1788055569 | 33.89° C | 39% | 1014 hPa | 0 mm | - | 0 W/m² | - |
| 1788055265 | 33.89° C | 39% | 1013.6 hPa | 0 mm | - | 0 W/m² | - |
| 1788054964 | 33.89° C | 39% | 1013.6 hPa | 0 mm | - | 0 W/m² | - |
| 1788054660 | 34.44° C | 39% | 1013.7 hPa | 0 mm | - | 0 W/m² | - |
| 1788054355 | 34.44° C | 38% | 1013.7 hPa | 0 mm | - | 0 W/m² | - |
| 1788054051 | 34.44° C | 38% | 1013.6 hPa | 0 mm | - | 0 W/m² | - |
| 1788053747 | 34.44° C | 38% | 1013.5 hPa | 0 mm | - | 0 W/m² | - |
| 1788053442 | 34.44° C | 37% | 1013.3 hPa | 0 mm | - | 0 W/m² | - |
| 1788053136 | 35° C | 36% | 1013.5 hPa | 0 mm | - | 0 W/m² | - |
| 1788052833 | 35° C | 35% | 1013.5 hPa | 0 mm | - | 0 W/m² | - |
| 1788052533 | 35° C | 35% | 1013 hPa | 0 mm | - | 0 W/m² | - |
| 1788052227 | 35° C | 34% | 1012.9 hPa | 0 mm | - | 0 W/m² | - |
| 1788051922 | 35° C | 34% | 1013.3 hPa | 0 mm | - | 1 W/m² | - |
| 1788051618 | 35.56° C | 33% | 1013.3 hPa | 0 mm | - | 3 W/m² | - |
| 1788051316 | 35.56° C | 33% | 1012.9 hPa | 0 mm | - | 6 W/m² | - |
| 1788051015 | 36.11° C | 32% | 1013.3 hPa | 0 mm | - | 9 W/m² | - |
| 1788050710 | 36.11° C | 32% | 1013 hPa | 0 mm | - | 12 W/m² | - |
| 1788050409 | 36.67° C | 31% | 1013.3 hPa | 0 mm | - | 16 W/m² | - |
| 1788050104 | 36.67° C | 31% | 1013 hPa | 0 mm | - | 23 W/m² | - |
| 1788049803 | 37.22° C | 31% | 1013.3 hPa | 0 mm | - | 26 W/m² | - |
| 1788049496 | 37.22° C | 31% | 1013.4 hPa | 0 mm | - | 33 W/m² | - |
| 1788049192 | 37.22° C | 31% | 1013.3 hPa | 0 mm | - | 40 W/m² | - |
| 1788048887 | 37.78° C | 30% | 1013.2 hPa | 0 mm | - | 46 W/m² | - |
* Rain latest hour (hover to see other rain measurements)
** Current wind speed in m/s (hover to see current wind gust speed)